Time,TemperatureF,DewpointF,PressureIn,WindDirection,WindDirectionDegrees,WindSpeedMPH,WindSpeedGustMPH,Humidity,HourlyPrecipIn,Conditions,Clouds,dailyrainin,SoftwareType,DateUTC
2013-01-24 00:02:00,48.0,38.0,30.13,NE,37,3.0,-999.0,69,-99.99,,,-99.99,,2013-01-24 06:02:00,
2013-01-24 00:12:00,48.0,38.0,30.13,NE,37,3.0,-999.0,69,-99.99,,,-99.99,,2013-01-24 06:12:00,
2013-01-24 00:22:00,47.0,38.0,30.14,NE,45,2.0,-999.0,71,-99.99,,,-99.99,,2013-01-24 06:22:00,
2013-01-24 00:32:00,46.0,36.0,30.14,NE,35,3.0,-999.0,69,-99.99,,,-99.99,,2013-01-24 06:32:00,
2013-01-24 00:42:00,46.0,36.0,30.14,NE,35,3.0,-999.0,69,-99.99,,,-99.99,,2013-01-24 06:42:00,
2013-01-24 00:52:00,46.0,35.0,30.14,North,356,3.0,-999.0,65,-99.99,,,-99.99,,2013-01-24 06:52:00,
2013-01-24 01:02:00,45.0,33.0,30.14,NE,54,3.0,-999.0,62,-99.99,,,-99.99,,2013-01-24 07:02:00,
2013-01-24 01:12:00,45.0,33.0,30.14,NE,54,3.0,-999.0,62,-99.99,,,-99.99,,2013-01-24 07:12:00,
2013-01-24 01:22:00,45.0,32.0,30.14,NE,45,4.0,-999.0,59,-99.99,,,-99.99,,2013-01-24 07:22:00,
2013-01-24 01:33:00,44.0,30.0,30.14,North,8,3.0,-999.0,58,-99.99,,,-99.99,,2013-01-24 07:33:00,
2013-01-24 01:42:00,44.0,30.0,30.14,North,8,3.0,-999.0,58,-99.99,,,-99.99,,2013-01-24 07:42:00,
2013-01-24 01:53:00,44.0,30.0,30.14,North,6,2.0,-999.0,57,-99.99,,,-99.99,,2013-01-24 07:53:00,
2013-01-24 02:02:00,44.0,29.0,30.15,North,352,3.0,-999.0,56,-99.99,,,-99.99,,2013-01-24 08:02:00,
2013-01-24 02:12:00,44.0,29.0,30.15,North,352,3.0,-999.0,56,-99.99,,,-99.99,,2013-01-24 08:12:00,
2013-01-24 02:22:00,43.0,28.0,30.16,North,360,2.0,-999.0,56,-99.99,,,-99.99,,2013-01-24 08:22:00,
2013-01-24 02:33:00,42.0,27.0,30.16,North,10,2.0,-999.0,56,-99.99,,,-99.99,,2013-01-24 08:33:00,
2013-01-24 02:42:00,42.0,27.0,30.16,North,10,2.0,-999.0,56,-99.99,,,-99.99,,2013-01-24 08:42:00,
2013-01-24 02:53:00,41.0,27.0,30.16,NNE,17,3.0,-999.0,56,-99.99,,,-99.99,,2013-01-24 08:53:00,
2013-01-24 03:02:00,41.0,27.0,30.16,NE,44,3.0,-999.0,56,-99.99,,,-99.99,,2013-01-24 09:02:00,
2013-01-24 03:12:00,41.0,27.0,30.16,NE,44,3.0,-999.0,56,-99.99,,,-99.99,,2013-01-24 09:12:00,
2013-01-24 03:22:00,41.0,26.0,30.16,NE,40,3.0,-999.0,55,-99.99,,,-99.99,,2013-01-24 09:22:00,
2013-01-24 03:33:00,40.0,25.0,30.15,North,360,3.0,-999.0,55,-99.99,,,-99.99,,2013-01-24 09:33:00,
2013-01-24 03:42:00,40.0,25.0,30.15,North,360,3.0,-999.0,55,-99.99,,,-99.99,,2013-01-24 09:42:00,
2013-01-24 03:53:00,40.0,26.0,30.15,NNE,31,3.0,-999.0,56,-99.99,,,-99.99,,2013-01-24 09:53:00,
2013-01-24 04:02:00,39.0,25.0,30.15,NE,52,2.0,-999.0,56,-99.99,,,-99.99,,2013-01-24 10:02:00,
2013-01-24 04:12:00,39.0,25.0,30.15,NE,52,2.0,-999.0,56,-99.99,,,-99.99,,2013-01-24 10:12:00,
2013-01-24 04:22:00,39.0,25.0,30.15,NE,34,2.0,-999.0,57,-99.99,,,-99.99,,2013-01-24 10:22:00,
2013-01-24 04:33:00,38.0,24.0,30.15,NE,54,2.0,-999.0,57,-99.99,,,-99.99,,2013-01-24 10:33:00,
2013-01-24 04:43:00,38.0,24.0,30.15,NE,54,2.0,-999.0,57,-99.99,,,-99.99,,2013-01-24 10:43:00,
2013-01-24 04:53:00,38.0,25.0,30.14,North,352,3.0,-999.0,58,-99.99,,,-99.99,,2013-01-24 10:53:00,
2013-01-24 05:02:00,38.0,25.0,30.15,NNE,17,2.0,-999.0,58,-99.99,,,-99.99,,2013-01-24 11:02:00,
2013-01-24 05:12:00,38.0,25.0,30.15,NNE,17,2.0,-999.0,58,-99.99,,,-99.99,,2013-01-24 11:12:00,
2013-01-24 05:22:00,37.0,24.0,30.16,North,3,3.0,-999.0,58,-99.99,,,-99.99,,2013-01-24 11:22:00,
2013-01-24 05:33:00,37.0,24.0,30.16,NE,38,2.0,-999.0,58,-99.99,,,-99.99,,2013-01-24 11:33:00,
2013-01-24 05:43:00,37.0,24.0,30.16,NE,38,2.0,-999.0,58,-99.99,,,-99.99,,2013-01-24 11:43:00,
2013-01-24 05:53:00,37.0,24.0,30.16,North,1,2.0,-999.0,59,-99.99,,,-99.99,,2013-01-24 11:53:00,
2013-01-24 06:03:00,37.0,24.0,30.17,North,3,2.0,-999.0,59,-99.99,,,-99.99,,2013-01-24 12:03:00,
2013-01-24 06:12:00,37.0,24.0,30.17,North,3,2.0,-999.0,59,-99.99,,,-99.99,,2013-01-24 12:12:00,
2013-01-24 06:22:00,36.0,23.0,30.16,NNE,30,2.0,-999.0,59,-99.99,,,-99.99,,2013-01-24 12:22:00,
2013-01-24 06:33:00,36.0,23.0,30.16,NNE,25,2.0,-999.0,59,-99.99,,,-99.99,,2013-01-24 12:33:00,
2013-01-24 06:42:00,36.0,23.0,30.16,NNE,25,2.0,-999.0,59,-99.99,,,-99.99,,2013-01-24 12:42:00,
2013-01-24 06:53:00,36.0,23.0,30.16,North,11,2.0,-999.0,58,-99.99,,,-99.99,,2013-01-24 12:53:00,
2013-01-24 07:02:00,36.0,23.0,30.16,NNE,24,2.0,-999.0,58,-99.99,,,-99.99,,2013-01-24 13:02:00,
2013-01-24 07:12:00,36.0,23.0,30.16,NNE,24,2.0,-999.0,58,-99.99,,,-99.99,,2013-01-24 13:12:00,
2013-01-24 07:23:00,36.0,22.0,30.16,NNE,16,2.0,-999.0,57,-99.99,,,-99.99,,2013-01-24 13:23:00,
2013-01-24 07:33:00,36.0,22.0,30.16,NNE,21,3.0,-999.0,56,-99.99,,,-99.99,,2013-01-24 13:33:00,
2013-01-24 07:42:00,36.0,22.0,30.16,NNE,21,3.0,-999.0,56,-99.99,,,-99.99,,2013-01-24 13:42:00,
2013-01-24 07:53:00,36.0,21.0,30.16,NNE,18,3.0,-999.0,54,-99.99,,,-99.99,,2013-01-24 13:53:00,
2013-01-24 08:02:00,36.0,21.0,30.16,NE,51,3.0,-999.0,54,-99.99,,,-99.99,,2013-01-24 14:02:00,
2013-01-24 08:12:00,36.0,21.0,30.16,NE,51,3.0,-999.0,54,-99.99,,,-99.99,,2013-01-24 14:12:00,
2013-01-24 08:23:00,36.0,21.0,30.16,NNE,27,3.0,-999.0,53,-99.99,,,-99.99,,2013-01-24 14:23:00,
2013-01-24 08:33:00,36.0,20.0,30.17,NNE,13,2.0,-999.0,52,-99.99,,,-99.99,,2013-01-24 14:33:00,
2013-01-24 08:43:00,36.0,20.0,30.17,NNE,13,2.0,-999.0,52,-99.99,,,-99.99,,2013-01-24 14:43:00,
2013-01-24 08:54:00,37.0,21.0,30.16,ENE,59,3.0,-999.0,51,-99.99,,,-99.99,,2013-01-24 14:54:00,
2013-01-24 09:03:00,37.0,21.0,30.16,NE,42,2.0,-999.0,51,-99.99,,,-99.99,,2013-01-24 15:03:00,
2013-01-24 09:12:00,37.0,21.0,30.16,NE,42,2.0,-999.0,51,-99.99,,,-99.99,,2013-01-24 15:12:00,
2013-01-24 09:23:00,37.0,20.0,30.17,NNE,32,3.0,-999.0,50,-99.99,,,-99.99,,2013-01-24 15:23:00,
2013-01-24 09:33:00,37.0,20.0,30.17,NNE,32,3.0,-999.0,50,-99.99,,,-99.99,,2013-01-24 15:33:00,
2013-01-24 09:43:00,37.0,20.0,30.18,North,7,3.0,-999.0,50,-99.99,,,-99.99,,2013-01-24 15:43:00,
2013-01-24 09:53:00,37.0,20.0,30.18,NE,54,3.0,-999.0,49,-99.99,,,-99.99,,2013-01-24 15:53:00,
2013-01-24 10:03:00,37.0,19.0,30.19,North,1,3.0,-999.0,48,-99.99,,,-99.99,,2013-01-24 16:03:00,
2013-01-24 10:12:00,37.0,19.0,30.19,North,1,3.0,-999.0,48,-99.99,,,-99.99,,2013-01-24 16:12:00,
2013-01-24 10:23:00,38.0,20.0,30.19,NE,37,2.0,-999.0,48,-99.99,,,-99.99,,2013-01-24 16:23:00,
2013-01-24 10:33:00,38.0,20.0,30.19,NNE,28,2.0,-999.0,47,-99.99,,,-99.99,,2013-01-24 16:33:00,
2013-01-24 10:42:00,38.0,20.0,30.19,NNE,28,2.0,-999.0,47,-99.99,,,-99.99,,2013-01-24 16:42:00,
2013-01-24 11:02:00,38.0,20.0,30.19,NNE,24,2.0,-999.0,47,-99.99,,,-99.99,,2013-01-24 17:02:00,
2013-01-24 11:12:00,38.0,20.0,30.19,NNE,24,2.0,-999.0,47,-99.99,,,-99.99,,2013-01-24 17:12:00,
2013-01-24 11:22:00,38.0,20.0,30.17,North,7,2.0,-999.0,47,-99.99,,,-99.99,,2013-01-24 17:22:00,
2013-01-24 11:32:00,38.0,19.0,30.16,North,360,3.0,-999.0,46,-99.99,,,-99.99,,2013-01-24 17:32:00,
2013-01-24 11:42:00,38.0,19.0,30.16,North,360,3.0,-999.0,46,-99.99,,,-99.99,,2013-01-24 17:42:00,
2013-01-24 11:52:00,39.0,20.0,30.15,NE,48,3.0,-999.0,46,-99.99,,,-99.99,,2013-01-24 17:52:00,
2013-01-24 12:02:00,40.0,21.0,30.15,NNE,13,3.0,-999.0,46,-99.99,,,-99.99,,2013-01-24 18:02:00,
2013-01-24 12:12:00,40.0,21.0,30.15,North,360,2.0,-999.0,46,-99.99,,,-99.99,,2013-01-24 18:12:00,
2013-01-24 12:22:00,40.0,21.0,30.15,North,360,2.0,-999.0,46,-99.99,,,-99.99,,2013-01-24 18:22:00,
2013-01-24 12:32:00,40.0,21.0,30.15,NNE,32,2.0,-999.0,46,-99.99,,,-99.99,,2013-01-24 18:32:00,
2013-01-24 12:42:00,40.0,21.0,30.15,NNE,32,2.0,-999.0,46,-99.99,,,-99.99,,2013-01-24 18:42:00,
2013-01-24 12:53:00,40.0,20.0,30.14,NE,40,3.0,-999.0,45,-99.99,,,-99.99,,2013-01-24 18:53:00,
2013-01-24 13:02:00,41.0,21.0,30.14,NNE,24,3.0,-999.0,45,-99.99,,,-99.99,,2013-01-24 19:02:00,
2013-01-24 13:12:00,41.0,21.0,30.13,NNE,13,2.0,-999.0,45,-99.99,,,-99.99,,2013-01-24 19:12:00,
2013-01-24 13:22:00,41.0,21.0,30.13,NNE,13,2.0,-999.0,45,-99.99,,,-99.99,,2013-01-24 19:22:00,
2013-01-24 13:32:00,41.0,21.0,30.12,North,10,2.0,-999.0,44,-99.99,,,-99.99,,2013-01-24 19:32:00,
2013-01-24 13:42:00,41.0,21.0,30.12,NW,326,2.0,-999.0,44,-99.99,,,-99.99,,2013-01-24 19:42:00,
2013-01-24 13:52:00,41.0,21.0,30.12,NW,326,2.0,-999.0,44,-99.99,,,-99.99,,2013-01-24 19:52:00,
2013-01-24 14:02:00,41.0,21.0,30.11,North,360,1.0,-999.0,44,-99.99,,,-99.99,,2013-01-24 20:02:00,
2013-01-24 14:11:00,41.0,21.0,30.10,North,359,2.0,-999.0,44,-99.99,,,-99.99,,2013-01-24 20:11:00,
2013-01-24 14:22:00,41.0,21.0,30.10,North,359,2.0,-999.0,44,-99.99,,,-99.99,,2013-01-24 20:22:00,
2013-01-24 14:32:00,41.0,20.0,30.10,North,359,1.0,-999.0,43,-99.99,,,-99.99,,2013-01-24 20:32:00,
2013-01-24 14:42:00,42.0,22.0,30.08,NE,47,1.0,-999.0,44,-99.99,,,-99.99,,2013-01-24 20:42:00,
2013-01-24 14:52:00,42.0,22.0,30.08,NE,47,1.0,-999.0,44,-99.99,,,-99.99,,2013-01-24 20:52:00,
2013-01-24 15:02:00,41.0,21.0,30.06,NE,45,1.0,-999.0,44,-99.99,,,-99.99,,2013-01-24 21:02:00,
2013-01-24 15:12:00,42.0,22.0,30.06,North,360,1.0,-999.0,45,-99.99,,,-99.99,,2013-01-24 21:12:00,
2013-01-24 15:22:00,42.0,22.0,30.06,North,360,1.0,-999.0,45,-99.99,,,-99.99,,2013-01-24 21:22:00,
2013-01-24 15:33:00,42.0,22.0,30.07,North,357,1.0,-999.0,45,-99.99,,,-99.99,,2013-01-24 21:33:00,
2013-01-24 15:42:00,42.0,22.0,30.07,North,357,1.0,-999.0,45,-99.99,,,-99.99,,2013-01-24 21:42:00,
2013-01-24 15:53:00,43.0,23.0,30.08,NW,309,0.0,-999.0,45,-99.99,,,-99.99,,2013-01-24 21:53:00,
2013-01-24 16:02:00,43.0,23.0,30.06,North,360,1.0,-999.0,45,-99.99,,,-99.99,,2013-01-24 22:02:00,
2013-01-24 16:12:00,43.0,23.0,30.04,NW,322,0.0,-999.0,44,-99.99,,,-99.99,,2013-01-24 22:12:00,
2013-01-24 16:22:00,43.0,23.0,30.04,NW,322,0.0,-999.0,44,-99.99,,,-99.99,,2013-01-24 22:22:00,
2013-01-24 16:32:00,43.0,23.0,30.05,North,360,0.0,-999.0,44,-99.99,,,-99.99,,2013-01-24 22:32:00,
2013-01-24 16:42:00,43.0,23.0,30.05,North,360,0.0,-999.0,44,-99.99,,,-99.99,,2013-01-24 22:42:00,
2013-01-24 16:53:00,43.0,23.0,30.04,NE,52,0.0,-999.0,44,-99.99,,,-99.99,,2013-01-24 22:53:00,
2013-01-24 17:02:00,43.0,23.0,30.04,NNE,30,1.0,-999.0,45,-99.99,,,-99.99,,2013-01-24 23:02:00,
2013-01-24 17:12:00,43.0,23.0,30.04,NNE,30,1.0,-999.0,45,-99.99,,,-99.99,,2013-01-24 23:12:00,
2013-01-24 17:22:00,43.0,23.0,30.04,North,359,0.0,-999.0,45,-99.99,,,-99.99,,2013-01-24 23:22:00,
2013-01-24 17:32:00,43.0,23.0,30.05,North,359,0.0,-999.0,45,-99.99,,,-99.99,,2013-01-24 23:32:00,
2013-01-24 17:42:00,43.0,23.0,30.05,North,359,0.0,-999.0,45,-99.99,,,-99.99,,2013-01-24 23:42:00,
2013-01-24 17:52:00,43.0,24.0,30.06,WNW,289,0.0,-999.0,46,-99.99,,,-99.99,,2013-01-24 23:52:00,
2013-01-24 18:02:00,43.0,24.0,30.06,WSW,258,1.0,-999.0,46,-99.99,,,-99.99,,2013-01-25 00:02:00,
2013-01-24 18:12:00,43.0,24.0,30.06,WSW,258,1.0,-999.0,46,-99.99,,,-99.99,,2013-01-25 00:12:00,
2013-01-24 18:22:00,41.0,22.0,30.04,West,277,2.0,-999.0,47,-99.99,,,-99.99,,2013-01-25 00:22:00,
2013-01-24 18:32:00,41.0,22.0,30.03,WNW,302,1.0,-999.0,47,-99.99,,,-99.99,,2013-01-25 00:32:00,
2013-01-24 18:42:00,41.0,22.0,30.03,WNW,302,1.0,-999.0,47,-99.99,,,-99.99,,2013-01-25 00:42:00,
2013-01-24 18:52:00,40.0,21.0,30.01,WNW,296,0.0,-999.0,47,-99.99,,,-99.99,,2013-01-25 00:52:00,
2013-01-24 19:01:00,40.0,22.0,30.01,WNW,296,0.0,-999.0,48,-99.99,,,-99.99,,2013-01-25 01:01:00,
2013-01-24 19:12:00,40.0,22.0,30.02,WNW,285,1.0,-999.0,49,-99.99,,,-99.99,,2013-01-25 01:12:00,
2013-01-24 19:21:00,40.0,22.0,30.02,WNW,285,1.0,-999.0,49,-99.99,,,-99.99,,2013-01-25 01:21:00,
2013-01-24 19:32:00,40.0,22.0,30.05,WNW,284,2.0,-999.0,49,-99.99,,,-99.99,,2013-01-25 01:32:00,
2013-01-24 19:42:00,40.0,22.0,30.05,WNW,284,2.0,-999.0,49,-99.99,,,-99.99,,2013-01-25 01:42:00,
2013-01-24 19:52:00,40.0,22.0,30.04,West,270,1.0,-999.0,49,-99.99,,,-99.99,,2013-01-25 01:52:00,
2013-01-24 20:02:00,40.0,23.0,30.05,WNW,282,1.0,-999.0,50,-99.99,,,-99.99,,2013-01-25 02:02:00,
2013-01-24 20:11:00,40.0,23.0,30.05,WNW,282,1.0,-999.0,50,-99.99,,,-99.99,,2013-01-25 02:11:00,
2013-01-24 20:22:00,39.0,22.0,30.05,West,278,2.0,-999.0,50,-99.99,,,-99.99,,2013-01-25 02:22:00,
2013-01-24 20:32:00,39.0,22.0,30.06,WNW,288,2.0,-999.0,51,-99.99,,,-99.99,,2013-01-25 02:32:00,
2013-01-24 20:42:00,39.0,22.0,30.06,WNW,298,2.0,-999.0,51,-99.99,,,-99.99,,2013-01-25 02:42:00,
2013-01-24 20:52:00,39.0,22.0,30.06,WNW,298,2.0,-999.0,51,-99.99,,,-99.99,,2013-01-25 02:52:00,
2013-01-24 21:02:00,38.0,22.0,30.06,WNW,296,2.0,-999.0,51,-99.99,,,-99.99,,2013-01-25 03:02:00,
2013-01-24 21:12:00,38.0,22.0,30.06,NNW,342,2.0,-999.0,51,-99.99,,,-99.99,,2013-01-25 03:12:00,
2013-01-24 21:22:00,38.0,22.0,30.06,NNW,342,2.0,-999.0,51,-99.99,,,-99.99,,2013-01-25 03:22:00,
2013-01-24 21:32:00,38.0,22.0,30.06,NW,325,1.0,-999.0,52,-99.99,,,-99.99,,2013-01-25 03:32:00,
2013-01-24 21:41:00,38.0,22.0,30.06,NW,325,1.0,-999.0,52,-99.99,,,-99.99,,2013-01-25 03:41:00,
2013-01-24 21:52:00,37.0,21.0,30.05,WNW,291,1.0,-999.0,53,-99.99,,,-99.99,,2013-01-25 03:52:00,
2013-01-24 22:02:00,37.0,22.0,30.05,WNW,289,1.0,-999.0,54,-99.99,,,-99.99,,2013-01-25 04:02:00,
2013-01-24 22:12:00,37.0,22.0,30.06,WNW,296,2.0,-999.0,55,-99.99,,,-99.99,,2013-01-25 04:12:00,
2013-01-24 22:22:00,37.0,22.0,30.06,WNW,296,2.0,-999.0,55,-99.99,,,-99.99,,2013-01-25 04:22:00,
2013-01-24 22:32:00,37.0,23.0,30.06,NNW,336,2.0,-999.0,56,-99.99,,,-99.99,,2013-01-25 04:32:00,
2013-01-24 22:41:00,37.0,23.0,30.06,NNW,336,2.0,-999.0,56,-99.99,,,-99.99,,2013-01-25 04:41:00,
2013-01-24 22:52:00,36.0,22.0,30.06,West,271,2.0,-999.0,57,-99.99,,,-99.99,,2013-01-25 04:52:00,
2013-01-24 23:03:00,36.0,22.0,30.06,North,4,1.0,-999.0,57,-99.99,,,-99.99,,2013-01-25 05:03:00,
2013-01-24 23:12:00,36.0,22.0,30.06,NW,320,2.0,-999.0,57,-99.99,,,-99.99,,2013-01-25 05:12:00,
2013-01-24 23:22:00,36.0,22.0,30.06,NW,320,2.0,-999.0,57,-99.99,,,-99.99,,2013-01-25 05:22:00,
2013-01-24 23:32:00,36.0,22.0,30.06,NNW,328,1.0,-999.0,57,-99.99,,,-99.99,,2013-01-25 05:32:00,
2013-01-24 23:43:00,36.0,22.0,30.06,NNW,328,1.0,-999.0,57,-99.99,,,-99.99,,2013-01-25 05:43:00,
2013-01-24 23:52:00,36.0,23.0,30.05,NW,319,1.0,-999.0,58,-99.99,,,-99.99,,2013-01-25 05:52:00,